Skip to main content.
NOAA NWS Hourly Roundups by Site

NOAA NWS Hourly Roundups by Site

Regional Weather Roundup for Omaha, NE

To Select Another Site Choose from List

Select Site:  

000
ASUS43 KOAX 200810
RWRNE

WEATHER ROUNDUP FOR NEBRASKA
NATIONAL WEATHER SERVICE OMAHA NE
300 AM CDT TUE OCT 20 2020

NOTES: SATELLITE DATA IS BEING USED TO AUGMENT CLOUD COVER ABOVE
       12000 FEET.
       "FAIR" INDICATES FEW OR NO CLOUDS BELOW 12,000 FEET WITH NO
       SIGNIFICANT WEATHER AND/OR OBSTRUCTIONS TO VISIBILITY.


NEZ001>004-019>022-054>056-200900-
NEBRASKA PANHANDLE

CITY           SKY/WX    TMP DP  RH WIND       PRES   REMARKS
SCOTTSBLUFF    CLEAR     36  31  82 E12       29.86F WCI  28
ALLIANCE       CLEAR     38  31  76 S16G26    29.85F WCI  29
CHADRON        MOCLDY    43  35  73 S15       29.80F
GORDON         FAIR      39  33  78 SE8       29.85F WCI  34
KIMBALL        CLEAR     30  28  93 SW6       29.92S WCI  24
SIDNEY         CLEAR     34  30  85 S10       29.90F WCI  26
$$

NEZ057>060-069>072-079>082-200900-
SOUTHWEST NEBRASKA

CITY           SKY/WX    TMP DP  RH WIND       PRES   REMARKS
NORTH PLATTE   CLEAR     38  31  76 SE9       30.00F WCI  31
IMPERIAL       PTCLDY    36  29  75 S13       29.99F WCI  27
LEXINGTON      MOCLDY    38  34  83 S6        30.04S WCI  34
MCCOOK         PTCLDY    37  30  75 S7        30.03S WCI  32
OGALLALA       CLEAR     35  29  78 S6        29.96F WCI  30
$$

NEZ005>010-023>029-035>040-094-200900-
NORTH CENTRAL NEBRASKA

CITY           SKY/WX    TMP DP  RH WIND       PRES   REMARKS
VALENTINE      CLOUDY    41  36  82 S9        29.95F
AINSWORTH      CLOUDY    41  35  79 S13       29.99S
BROKEN BOW     MOCLDY    39  33  79 S5        30.03F
O`NEILL        CLOUDY    37  33  85 SE9       30.05F WCI  31
ORD            MOCLDY    40  33  76 SE10      30.05S WCI  33
THEDFORD       CLOUDY    41  34  75 S10       29.99F
$$

NEZ041-046>049-061>064-073>077-083>087-200900-
SOUTH CENTRAL NEBRASKA

CITY           SKY/WX    TMP DP  RH WIND       PRES   REMARKS
GRAND ISLAND   CLOUDY    40  31  70 SE7       30.09S
AURORA         CLOUDY    39  32  76 E7        30.10S WCI  34
HASTINGS       PTCLDY    41  32  70 SE6       30.07F
HEBRON         CLOUDY    42  32  66 SE7       30.11F
HOLDREGE       CLOUDY    44  34  68 S12       30.04F
KEARNEY        CLOUDY    43  34  70 SE12      30.06F
YORK           CLOUDY    37  30  75 SE8       30.11S WCI  31
$$

NEZ011>018-030>034-042>045-200900-
NORTHEAST NEBRASKA

CITY           SKY/WX    TMP DP  RH WIND       PRES   REMARKS
NORFOLK        CLOUDY    35  31  85 SE8       30.11F WCI  29
ALBION         CLOUDY    37  34  89 SE8       30.09F WCI  30
BLAIR          PTCLDY    33  31  94 E6        30.15F WCI  28
COLUMBUS       PTCLDY    34  32  92 E6        30.14F WCI  29
FREMONT        MOCLDY    35  32  88 E8        30.14F WCI  29
TEKAMAH        CLOUDY    35  30  82 SE8       30.17F WCI  29
WAYNE          CLOUDY    33  32  94 S5        30.14S WCI  29
$$

NEZ050>053-065>068-078-088>093-200900-
SOUTHEAST NEBRASKA

CITY           SKY/WX    TMP DP  RH WIND       PRES   REMARKS
LINCOLN        MOCLDY    38  29  70 E7        30.15F WCI  33
OMAHA EPPLEY   MOCLDY    35  30  82 SE8       30.17F WCI  29
BEATRICE       PTCLDY    36  29  78 E6        30.14F WCI  31
FALLS CITY     CLOUDY    41  30  65 NE7       30.15F
NEBRASKA CITY  CLOUDY    40  30  66 E7        30.16F
PLATTSMOUTH    CLOUDY    36  32  87 E5        30.17F WCI  32
$$

NEZ044-045-051>053-067-200900-
OMAHA AREA

CITY           SKY/WX    TMP DP  RH WIND       PRES   REMARKS
OMAHA EPPLEY   MOCLDY    35  30  82 SE8       30.17F WCI  29
BLAIR          PTCLDY    33  31  94 E6        30.15F WCI  28
FREMONT        MOCLDY    35  32  88 E8        30.14F WCI  29
MILLARD        PTCLDY    37  31  79 SE5       30.16F WCI  33
OFFUTT AFB     PTCLDY    33  29  85 NE6       30.17F WCI  27
PLATTSMOUTH    CLOUDY    36  32  87 E5        30.17F WCI  32
WAHOO          CLOUDY    37  32  82 E9        30.14F WCI  30
$$


 

View Past Reports for Omaha, NE.

Products Courtesy of NOAA-NWS
NWS Information Parsing Script by Ken True at Saratoga Weather - Script by SE Lincoln Weather.